Regional Weather Roundup
Issued by NWS

Home | Current Version | Previous Version | Text Only | Print | Product List | Glossary Off
Versions: 1 2 3 4 5 6 7 8 9 10 11 12 13 14 15 16 17 18 19 20 21 22 23 24 25 26 27 28 29 30 31 32 33 34 35 36 37 38 39 40 41 42 43 44 45 46 47 48 49 50

000
ASUS43 KMKX 232100
RWRWI

WISCONSIN REGIONAL WEATHER ROUNDUP
NATIONAL WEATHER SERVICE MILWAUKEE/SULLIVAN WI
400 PM CDT SUN APR 23 2017

NOTE: "FAIR" INDICATES FEW OR NO CLOUDS BELOW 12,000 FEET WITH NO
SIGNIFICANT WEATHER AND/OR OBSTRUCTIONS TO VISIBILITY.

WIZ001-002-006>008-014>016-023>028-232200-
NORTHWEST WISCONSIN

CITY           SKY/WX    TMP DP  RH WIND       PRES   REMARKS
SUPERIOR ARPT  CLOUDY    35  30  82 E18       30.16S WCI  25
ASHLAND        CLOUDY    37  28  70 NE13      30.16F WCI  29
HAYWARD        CLOUDY    46  35  65 E10G16    30.08F
SIREN          CLOUDY    51  35  54 E6        30.05F
CUMBERLAND     MOSUNNY   55  37  50 NE6       30.02F
RICE LAKE      MOSUNNY   60  39  46 CALM      30.03F
CHETEK         MOSUNNY   59  42  53 N3        30.02F
LADYSMITH      MOSUNNY   58  40  51 NE3       30.05F
EAU CLAIRE     NOT AVBL
MENOMONIE      MOSUNNY   66  40  38 CALM      30.00F
NEW RICHMOND   PTSUNNY   64  37  36 CALM      30.00F
OSCEOLA        PTSUNNY   63  43  48 E5        30.03F
$$

WIZ003>005-009-010-017-018-232200-
NORTH CENTRAL WISCONSIN

CITY           SKY/WX    TMP DP  RH WIND       PRES   REMARKS
MANITOWISH WTR CLOUDY    39  36  90 NE8       30.10F WCI  33
ARBOR VITAE    CLOUDY    42  35  74 SE8       30.08F
WOODRUFF       CLOUDY    42  35  74 SE8       30.08F
RHINELANDER    MOSUNNY   50  36  58 NE10      30.06F
EAGLE RIVER    CLOUDY    40  32  72 NE6       30.10S
LAND O LAKES   CLOUDY    39  33  78 NE6       30.12F WCI  35
PHILLIPS       CLOUDY    50  37  59 NE9       30.04F
TOMAHAWK       SUNNY     54  37  52 N7        30.05F
MEDFORD        MOSUNNY   61  42  49 S3        30.01F
MERRILL        SUNNY     57  41  55 SE3       30.04F
$$

WIZ029-030-035-036-043>047-232200-
CENTRAL WISCONSIN

CITY           SKY/WX    TMP DP  RH WIND       PRES   REMARKS
WAUSAU         SUNNY     63  42  46 VRB5      30.00F
MOSINEE        MOSUNNY   64  39  39 NW3       30.01F
MARSHFIELD     SUNNY     67  36  31 NW7       29.98F
STEVENS POINT  SUNNY     66  37  34 W6        30.01F
WAUPACA        SUNNY     62  43  49 E12G18    30.05F
WAUTOMA        MOSUNNY   63  45  51 MISG        N/A
WISC RAPIDS    SUNNY     71  40  32 N9        29.99F
CAMP DOUGLAS   SUNNY     71  33  24 W9        29.98F
$$

WIZ011>013-019>022-031-037>040-048>050-232200-
NORTHEAST WISCONSIN

CITY           SKY/WX    TMP DP  RH WIND       PRES   REMARKS
ANTIGO         MOSUNNY   55  39  54 E9        30.05F
SHAWANO        SUNNY     56  41  56 E13       30.09S
OCONTO         SUNNY     44  33  64 E14G20    30.13S
STURGEON BAY   PTSUNNY   44  33  65 E13       30.13F
GREEN BAY      SUNNY     49  39  68 NE20      30.10S
MANITOWOC      NOT AVBL
APPLETON       MOSUNNY   55  39  54 NE14G21   30.05F
CLINTONVILLE   SUNNY     55  37  50 E13       30.07F
OSHKOSH        SUNNY     56  43  61 E13       30.05F
$$

WIZ032>034-041-042-053>061-232200-
SOUTHWEST WISCONSIN

CITY           SKY/WX    TMP DP  RH WIND       PRES   REMARKS
LA CROSSE      SUNNY     74  33  22 SW5       29.97F
SPARTA         SUNNY     70  35  27 NW5       30.00F
VIROQUA        SUNNY     70  29  21 W9G16     30.01F
BOSCOBEL       SUNNY     74  32  21 SW13      30.00F
PRAIRIE DU CHI SUNNY     71  28  19 W5        30.01F
PLATTEVILLE    SUNNY     70  33  25 SW9       30.03F
$$

WIZ056-057-062-063-064-067-068-232200-
SOUTH CENTRAL WISCONSIN

CITY           SKY/WX    TMP DP  RH WIND       PRES   REMARKS
REEDSBURG      SUNNY     70  34  26 S8        29.99F
BARABOO/DELLS  SUNNY     71  31  22 W7        30.00F
LONE ROCK      NOT AVBL
MINERAL POINT  SUNNY     72  30  21 SW7       30.03F
MADISON        MOSUNNY   70  30  22 NW7       30.01F
MIDDLETON      SUNNY     72  32  22 NW3       30.02F
WATERTOWN      SUNNY     70  37  29 W3        30.01F
MONROE         SUNNY     70  34  26 S6        30.03F
JANESVILLE     SUNNY     72  30  21 W5        30.04
$$

WIZ051-052-058>065-066-070>072-232200-
SOUTHEAST WISCONSIN

CITY           SKY/WX    TMP DP  RH WIND       PRES   REMARKS
MILWAUKEE      MOSUNNY   45  37  73 N15G23    30.09F
WAUKESHA       NOT AVBL
MILWAUKEE/TIMM SUNNY     46  36  66 NE13      30.09F
RACINE         SUNNY     46  38  73 N18       30.09S
KENOSHA        SUNNY     62  42  47 NE15      30.04S
FOND DU LAC    SUNNY     58  41  53 E13       30.05F
SHEBOYGAN      SUNNY     45  38  76 NE17      30.10S
WEST BEND      SUNNY     52  39  62 E12       30.07F
JUNEAU         SUNNY     67  44  43 E14       30.02F
$$

LSZ147-162-232200-
LAKE SUPERIOR

STATION/POSITION TIME  TEMP    WIND        PRES    WAVE
                       AIR SEA DIR/SP/G            HT/PER
                 (UTC) (F)     (DEG/KT/KT) (MB)    (FT/S)
DEVILS ISLAND    2000   33      90/ 16/ 17 1023.5F
PORT WING        1940   35      40/ 19/ 21 1022.0S
SAXON HARBOR     2040   36      50/ 18/ 20 1021.0F
$$

LMZ867-665-643>646-232200-
LAKE MICHIGAN

STATION/POSITION TIME  TEMP    WIND        PRES    WAVE
                       AIR SEA DIR/SP/G            HT/PER
                 (UTC) (F)     (DEG/KT/KT) (MB)    (FT/S)
CHAMBERS ISLAND  2040   38      40/ 12/ 17 1020.3F
N MID LAKE BUOY  1950   37 37   30/ 12/ 16 1022.6F   2/ 4
NORTHPORT PIER   2040   39     360/ 12/ 14 1021.3F
KEWAUNEE LAKESHO 2030   40      50/ 15/ 21 1019.9R
SHEBOYGAN LAKESH 2000   39      30/ 19/ 20 1019.9F
PORT WASHINGTON  2030   43      40/ 16/ 19 1020.3S
MILWAUKEE LAKESH 2030   40      20/ 16/ 18   N/A
KENOSHA   LAKESH 2000   53     170/  9/ 13 1017.3
$$

TC  - TEMPERATURE IN CELSIUS
VSB - VISIBILITY IN STATUTE MILES
WCI - WIND CHILL INDEX
HX  - HEAT INDEX




USA.gov is the U.S. government's official web portal to all federal, state and local government web resources and services.